McKeesport, PA (15135)

10:18 AM EDT on August 20, 2017 (GMT -0400)
Pill Hill | | Change Station

Elev 986 ft 40.33 °N, 79.82 °W | Updated 26 seconds ago

Partly Cloudy
Partly Cloudy
73.0 °F
Feels Like 72 °F
N
1.0
Wind Variable Wind from NE

Today
High -- | Low -- °F
--% Chance of Precip.
Yesterday
High -- | Low -- °F
Precip. -- in
Pressure 30.15 in
Visibility 3.0 miles
Clouds Mostly Cloudy 200 ft
Heat Index 72 °F
Dew Point 68 °F
Humidity 86%
Rainfall 0.00 in
Snow Depth Not available.
6:35 AM 8:08 PM
Waning Crescent, 2% visible
SPECI KAGC 201408Z 12003KT 3SM BR BKN002 19/17 A3015 RMK AO2 T01890167
Pressure 30.15 in
Visibility 3.0 miles
Clouds Mostly Cloudy 200 ft
Heat Index 72 °F
Dew Point 68 °F
Humidity 86%
Rainfall 0.00 in
Snow Depth Not available.
6:35 AM 8:08 PM
Waning Crescent, 2% visible
SPECI KAGC 201408Z 12003KT 3SM BR BKN002 19/17 A3015 RMK AO2 T01890167

Get Severe Weather Alerts

Thanks for signing up!

Be on the lookout for a verification email in your inbox.

You'll start receiving the daily forecast at 6 AM.

×

10-Day Weather Forecast

Almanac

Astronomy

Aug. 20, 2017 Rise Set
Actual Time
Civil Twilight
Nautical Twilight
Astronomical Twilight
Moon
Length of Visible Light
Length of Day
Tomorrow will be .
, % of the Moon is Illuminated

Today's Extremes

State Highs State Lows

Community

WunderPhotos

Category 6

Welcome to Category 6. This is the collective home for Weather Underground's featured writeups by Dr. Jeff Masters (right), Bob Henson (left), Chris Burt, and other regular contributors.

Nearby

Air Quality

  Air Quality AQ Index Pollutant
Not available.

Snow Depth

Station Depth Elevation

Earthquake Activity

City Distance Mag. Time & Date
Minimum magnitude displayed is 2.5.

Coastal Water Temperatures

Place Temperature

Stations

Nearby Weather Stations

Station Location Temp. Windchill Dew Point Humidity Wind Precip. Elev Updated Type
                   

Watches & Warnings

There are currently no watches in effect.